Weather History for Orange, MA

Change the Weather History Date:

Tuesday, September 27, 2011

  Actual Average Record
Temperature  
Mean Temperature 71 °F -  
Max Temperature 82 °F 65 °F 82 °F (1998)
Min Temperature 60 °F 41 °F 35 °F (1997)
Cooling Degree Days 6    
Growing Degree Days 21 (Base 50)    
Moisture  
Dew Point 62 °F    
Average Humidity 86    
Maximum Humidity 100    
Minimum Humidity 52    
Precipitation  
Precipitation 0.01 in - - ()
Sea Level Pressure  
Sea Level Pressure 30.00 in    
Wind  
Wind Speed 1 mph (East)    
Max Wind Speed 7 mph    
Max Gust Speed -    
Visibility 6 miles    
Events Fog    
Averages and records for this station are not official NWS values.
T = Trace of Precipitation, MM = Missing Value Source: NWS Daily Summary

Daily Weather History Graph

Daily Weather History Graph

Search for Another Location

Airport:

Trip Planner

Search our weather history database for the weather conditions in past years. The results will help you decide how hot, cold, wet, or windy it might be!

Date:

Astronomy

Sep. 27, 2011 Rise Set
Actual Time 6:41 AM EDT 6:38 PM EDT
Civil Twilight 6:13 AM EDT 7:06 PM EDT
Nautical Twilight 5:40 AM EDT 7:38 PM EDT
Astronomical Twilight 5:07 AM EDT 8:12 PM EDT
Moon 6:53 AM EDT (9/27) 6:24 PM EDT (9/27)
Length of Visible Light 12h 52m
Length of Day
11h 56m
New Moon, 0% of the Moon is Illuminated
Sep 27
New Moon
Oct 3
First Quarter
Oct 11
Full
Oct 19
Last Quarter
Oct 26
New

Hourly Weather History & Observations

Time (EDT) Temp. Heat Index Dew Point Humidity Pressure Visibility Wind Dir Wind Speed Gust Speed Precip Events Conditions
12:01 AM 64.4 °F - 62.6 °F 94% 29.98 in 1.5 mi Calm Calm - N/A   Overcast
12:11 AM 64.4 °F - 62.6 °F 94% 29.97 in 1.2 mi Calm Calm - N/A   Overcast
12:24 AM 62.6 °F - 62.6 °F 100% 29.97 in 2.0 mi Calm Calm - N/A   Mostly Cloudy
12:28 AM 62.6 °F - 62.6 °F 100% 29.97 in 1.2 mi Calm Calm - N/A   Mostly Cloudy
12:30 AM 62.6 °F - 62.6 °F 100% 29.97 in 0.8 mi Calm Calm - N/A   Mostly Cloudy
12:52 AM 64.0 °F - 63.0 °F 96% 29.97 in 0.2 mi Calm Calm - N/A Fog Fog
1:04 AM 64.4 °F - 62.6 °F 94% 29.98 in 1.2 mi Calm Calm - N/A   Overcast
1:11 AM 62.6 °F - 62.6 °F 100% 29.98 in 0.8 mi Calm Calm - N/A   Mist
1:52 AM 63.0 °F - 62.1 °F 97% 29.98 in 0.2 mi Calm Calm - N/A Fog Fog
2:31 AM 62.6 °F - 60.8 °F 94% 29.98 in 1.5 mi Calm Calm - N/A   Overcast
2:34 AM 62.6 °F - 60.8 °F 94% 29.98 in 3.0 mi Calm Calm - N/A   Overcast
2:52 AM 62.1 °F - 61.0 °F 96% 29.97 in 5.0 mi Calm Calm - N/A   Scattered Clouds
2:59 AM 62.6 °F - 60.8 °F 94% 29.97 in 1.5 mi Calm Calm - N/A   Partly Cloudy
3:01 AM 62.6 °F - 60.8 °F 94% 29.97 in 0.8 mi Calm Calm - N/A   Mist
3:52 AM 61.0 °F - 61.0 °F 100% 29.97 in 0.8 mi Calm Calm - N/A   Mist
4:52 AM 61.0 °F - 61.0 °F 100% 29.97 in 0.5 mi Calm Calm - N/A Fog Fog
5:00 AM 60.8 °F - 60.8 °F 100% 29.98 in 1.2 mi Calm Calm - N/A   Overcast
5:06 AM 60.8 °F - 60.8 °F 100% 29.98 in 0.8 mi Calm Calm - N/A   Mist
5:52 AM 61.0 °F - 60.1 °F 97% 29.99 in 0.2 mi Calm Calm - N/A Fog Fog
6:52 AM 60.1 °F - 60.1 °F 100% 29.99 in 0.5 mi Calm Calm - 0.01 in Fog Fog
7:50 AM 60.8 °F - 60.8 °F 100% 30.01 in 1.5 mi Calm Calm - N/A   Overcast
7:52 AM 61.0 °F - 60.1 °F 97% 30.01 in 3.0 mi Calm Calm - N/A   Mostly Cloudy
8:26 AM 62.6 °F - 60.8 °F 94% 30.01 in 10.0 mi Calm Calm - N/A   Mostly Cloudy
8:35 AM 62.6 °F - 60.8 °F 94% 30.01 in 10.0 mi Calm Calm - N/A   Scattered Clouds
8:52 AM 64.9 °F - 62.1 °F 90% 30.01 in 10.0 mi Calm Calm - N/A   Partly Cloudy
9:52 AM 70.0 °F - 60.1 °F 71% 30.02 in 10.0 mi North 3.5 mph - N/A   Clear
10:52 AM 73.9 °F - 60.1 °F 62% 30.02 in 10.0 mi North 4.6 mph - N/A   Clear
11:52 AM 75.9 °F - 61.0 °F 60% 30.00 in 10.0 mi Calm Calm - N/A   Clear
12:52 PM 80.1 °F 81.5 °F 63.0 °F 56% 29.99 in 10.0 mi North 3.5 mph - N/A   Clear
1:52 PM 80.1 °F 81.2 °F 62.1 °F 54% 29.97 in 10.0 mi South 6.9 mph - N/A   Partly Cloudy
2:52 PM 82.0 °F 83.1 °F 63.0 °F 52% 29.97 in 10.0 mi ESE 6.9 mph - N/A   Mostly Cloudy
3:52 PM 78.1 °F - 64.9 °F 64% 29.97 in 10.0 mi ESE 6.9 mph - N/A   Overcast
4:52 PM 77.0 °F - 64.9 °F 66% 29.96 in 10.0 mi East 5.8 mph - N/A   Overcast
5:52 PM 73.9 °F - 64.9 °F 73% 29.98 in 10.0 mi East 6.9 mph - N/A   Mostly Cloudy
6:52 PM 72.0 °F - 64.0 °F 76% 30.00 in 10.0 mi East 4.6 mph - N/A   Overcast
7:52 PM 71.1 °F - 63.0 °F 75% 30.03 in 10.0 mi SE 5.8 mph - N/A   Overcast
8:07 PM 71.6 °F - 62.6 °F 73% 30.03 in 10.0 mi Variable 4.6 mph - N/A   Overcast
8:52 PM 70.0 °F - 63.0 °F 78% 30.04 in 10.0 mi East 5.8 mph - N/A   Overcast
9:00 PM 69.8 °F - 62.6 °F 78% 30.04 in 10.0 mi East 4.6 mph - N/A   Overcast
9:28 PM 69.8 °F - 62.6 °F 78% 30.04 in 10.0 mi ESE 3.5 mph - N/A   Overcast
9:52 PM 69.1 °F - 63.0 °F 81% 30.04 in 10.0 mi Calm Calm - N/A   Overcast
10:52 PM 68.0 °F - 63.0 °F 84% 30.06 in 10.0 mi East 5.8 mph - N/A   Overcast
11:00 PM 68.0 °F - 62.6 °F 83% 30.06 in 10.0 mi East 4.6 mph - N/A   Overcast
11:52 PM 66.9 °F - 63.0 °F 87% 30.05 in 10.0 mi East 4.6 mph - N/A   Overcast